Location: UMBC
(39.2555°N, 76.7093°W)
Time: 10:25:52
(UTC+02:00)

Amateur Radio Satellites - All Passes

Search period start: 24 July 2014 09:55
Search period end: 25 July 2014 09:55
Location: UMBC, 39.2555°N, 76.7093°W

Satellite Date Start Highest point End Downlink Frequencies (MHz)
Time Altitude Azimuth
AO-7 24 Jul 10:07:45 10:13:15 19° 92° (E) 10:18:42 29.400 - 29.500 MHz
TMSAT-1 24 Jul 10:13:29 10:18:48 73° 102° (ESE) 10:24:04 436.925 FM
Oscar 16 24 Jul 10:18:10 10:20:56 15° 298° (WNW) 10:23:42 437.025 USB, Beacon 2401.1428
ITAMSAT 1 24 Jul 10:26:13 10:30:30 27° 294° (WNW) 10:34:45 435.822 SSB
Gurwin Techsat 1B 24 Jul 10:34:23 10:39:33 53° 288° (WNW) 10:44:41 435.225 FM
ISS 24 Jul 10:37:16 10:38:20 11° 351° (N) 10:39:24 145.800 FM
OPAL 24 Jul 10:39:08 10:43:56 50° 258° (WSW) 10:48:44 ?
AO-27 24 Jul 10:44:34 10:48:03 19° 297° (WNW) 10:51:31 436.795 MHz FM
Uribyol 2 24 Jul 10:48:01 10:51:10 17° 298° (WNW) 10:54:18 436.500 FM
AO-Echo 24 Jul 10:50:59 10:53:49 15° 298° (WNW) 10:56:36 ?
Uosat F 24 Jul 11:02:39 11:07:30 47° 100° (E) 11:12:18 435.120 FM
JAS-1B 24 Jul 11:32:57 11:40:55 31° 302° (WNW) 11:48:11 435.800 - 435.900 CW/SSB
TMSAT-1 24 Jul 11:55:17 11:58:04 15° 299° (WNW) 12:00:51 436.925 FM
AO-7 24 Jul 11:58:31 12:06:53 84° 289° (WNW) 12:15:11 29.400 - 29.500 MHz
Lituanica SAT-1 24 Jul 12:00:25 12:01:50 15° 28° (NNE) 12:03:15 437.275 MHz beacon
KITSAT 1 24 Jul 12:03:57 12:09:03 18° 101° (ESE) 12:14:10 435.175 FM
Hamsat 24 Jul 12:14:00 12:17:01 19° 93° (E) 12:20:02 145.90 MHz
ISS 24 Jul 12:14:50 12:16:16 12° 12° (NNE) 12:17:42 145.800 FM
JAS-2 24 Jul 12:22:49 12:27:12 20° 90° (E) 12:31:16 435.800 - 435.900 CW/SSB, 435.910 FM
Uosat F 24 Jul 12:42:21 12:45:56 20° 296° (WNW) 12:49:29 435.120 FM
STRAND 1 24 Jul 12:52:54 12:58:00 69° 74° (ENE) 13:03:08 ?
SO-67 24 Jul 13:16:05 13:17:03 11° 91° (E) 13:18:01 435.3500 MHz FM
Lituanica SAT-1 24 Jul 13:32:45 13:34:39 26° 224° (SW) 13:36:33 437.275 MHz beacon
Hamsat 24 Jul 13:49:10 13:53:04 35° 288° (WNW) 13:56:59 145.90 MHz
ISS 24 Jul 13:50:36 13:53:45 36° 31° (NNE) 13:56:53 145.800 FM
Oscar 10/S400 24 Jul 13:52:51 15:01:06 22° 257° (WSW) 17:21:25 145.825 - 145.975 CW/USB, Beacon 145.810 USB
AO-7 24 Jul 13:53:09 13:58:28 19° 309° (NW) 14:03:46 29.400 - 29.500 MHz
KITSAT 1 24 Jul 13:55:17 14:03:24 86° 299° (WNW) 14:11:34 435.175 FM
PANSAT 24 Jul 13:56:36 13:58:26 13° 169° (S) 14:00:15 not established
JAS-2 24 Jul 14:06:45 14:12:47 52° 290° (WNW) 14:18:08 435.800 - 435.900 CW/SSB, 435.910 FM
MaSat-1 24 Jul 14:07:36 14:12:53 57° 62° (ENE) 14:17:55 437.345 MHz
STRAND 1 24 Jul 14:35:17 14:37:39 13° 269° (W) 14:40:02 ?
Saudisat 1A 24 Jul 14:43:42 14:47:42 35° 115° (ESE) 14:51:43 436.775 MHz
SO-67 24 Jul 14:47:03 14:50:18 37° 286° (WNW) 14:53:31 435.3500 MHz FM
HO-68 24 Jul 14:47:04 14:50:58 15° 90° (E) 14:54:50 435.675 MHz FM
ISS 24 Jul 15:27:34 15:30:21 24° 227° (SW) 15:33:06 145.800 FM
PANSAT 24 Jul 15:35:29 15:37:56 16° 182° (S) 15:40:24 not established
UKube-1 24 Jul 15:40:12 15:43:38 22° 95° (E) 15:47:03 145.840 MHz, 145.915 MHz
MaSat-1 24 Jul 15:46:13 15:49:44 18° 259° (W) 15:53:09 437.345 MHz
KITSAT 1 24 Jul 15:53:52 16:00:00 23° 321° (NW) 16:06:08 435.175 FM
Sapphire 24 Jul 16:22:25 16:26:32 21° 48° (NE) 16:30:38 437.095 MHz 1200 baud AX-25 AFSK
Saudisat 1A 24 Jul 16:23:39 16:27:20 25° 312° (NW) 16:31:02 436.775 MHz
Oscar 11 24 Jul 16:30:39 16:34:46 41° 99° (E) 16:38:52 145.825 FM, Beacon 2401.500 USB
HO-68 24 Jul 16:32:17 16:39:28 87° 287° (WNW) 16:46:36 435.675 MHz FM
FUNcube-1 24 Jul 16:38:16 16:41:02 17° 93° (E) 16:43:47 145.950 - 145.970 MHz USB
PCSat 24 Jul 16:55:49 17:00:56 40° 55° (NE) 17:06:00 145.825 MHz
UKube-1 24 Jul 17:16:02 17:19:51 30° 291° (WNW) 17:23:38 145.840 MHz, 145.915 MHz
PANSAT 24 Jul 17:16:21 17:17:26 11° 194° (SSW) 17:18:30 not established
Sapphire 24 Jul 18:05:01 18:10:21 59° 246° (WSW) 18:15:39 437.095 MHz 1200 baud AX-25 AFSK
Oscar 11 24 Jul 18:07:51 18:10:37 17° 294° (WNW) 18:13:23 145.825 FM, Beacon 2401.500 USB
FUNcube-1 24 Jul 18:13:45 18:17:33 35° 288° (WNW) 18:21:21 145.950 - 145.970 MHz USB
Oscar 16 24 Jul 18:18:21 18:19:34 11° 59° (ENE) 18:20:46 437.025 USB, Beacon 2401.1428
HO-68 24 Jul 18:21:58 18:26:09 17° 305° (NW) 18:30:20 435.675 MHz FM
JAS-1B 24 Jul 18:39:32 18:43:05 13° 45° (NE) 18:46:44 435.800 - 435.900 CW/SSB
PCSat 24 Jul 18:39:37 18:44:08 27° 252° (WSW) 18:48:37 145.825 MHz
Uribyol 2 24 Jul 18:49:47 18:50:28 10° 58° (ENE) 18:51:08 436.500 FM
Oscar 19 24 Jul 19:25:50 19:30:41 46° 71° (ENE) 19:35:34 437.125 CW, 437.150 USB
RS-15 24 Jul 19:47:17 19:57:31 43° 109° (ESE) 20:07:30 29.354 - 29.394 USB, Beacon 29.352 USB
Oscar 16 24 Jul 19:52:59 19:58:07 89° 75° (ENE) 20:03:16 437.025 USB, Beacon 2401.1428
KITSAT 1 24 Jul 19:56:21 19:59:26 12° 23° (NNE) 20:02:30 435.175 FM
TMSAT-1 24 Jul 19:57:02 19:59:20 13° 60° (ENE) 20:01:37 436.925 FM
SO-50 24 Jul 19:59:01 20:03:25 62° 118° (ESE) 20:07:54 436.795 FM
ITAMSAT 1 24 Jul 20:03:18 20:08:19 49° 71° (ENE) 20:13:21 435.822 SSB
Gurwin Techsat 1B 24 Jul 20:15:38 20:19:59 27° 66° (ENE) 20:24:22 435.225 FM
AO-27 24 Jul 20:20:55 20:26:07 75° 74° (ENE) 20:31:21 436.795 MHz FM
AO-Echo 24 Jul 20:21:49 20:27:04 76° 75° (ENE) 20:32:24 ?
JAS-1B 24 Jul 20:22:58 20:31:10 53° 66° (ENE) 20:40:28 435.800 - 435.900 CW/SSB
Uribyol 2 24 Jul 20:23:52 20:29:05 83° 75° (ENE) 20:34:18 436.500 FM
UOSAT-12 24 Jul 20:50:17 20:52:45 14° 108° (ESE) 20:55:14 437.025 FM, 437.400 FM
AO-7 24 Jul 21:05:38 21:12:14 27° 56° (NE) 21:18:50 29.400 - 29.500 MHz
Oscar 19 24 Jul 21:06:36 21:10:14 20° 267° (W) 21:13:54 437.125 CW, 437.150 USB
TMSAT-1 24 Jul 21:33:12 21:38:31 82° 257° (WSW) 21:43:51 436.925 FM
SO-50 24 Jul 21:41:27 21:44:24 17° 317° (NW) 21:47:23 436.795 FM
ITAMSAT 1 24 Jul 21:44:25 21:48:03 19° 267° (W) 21:51:43 435.822 SSB
KITSAT 1 24 Jul 21:49:59 21:57:31 40° 49° (NE) 22:04:58 435.175 FM
Gurwin Techsat 1B 24 Jul 21:54:52 21:59:45 37° 262° (W) 22:04:41 435.225 FM
RS-15 24 Jul 21:58:46 22:09:34 54° 310° (NW) 22:20:15 29.354 - 29.394 USB, Beacon 29.352 USB
AO-27 24 Jul 22:04:06 22:06:09 12° 270° (W) 22:08:13 436.795 MHz FM
AO-Echo 24 Jul 22:04:10 22:06:22 13° 271° (W) 22:08:34 ?
Uribyol 2 24 Jul 22:08:01 22:09:08 11° 271° (W) 22:10:16 436.500 FM
JAS-1B 24 Jul 22:14:11 22:21:51 38° 267° (W) 22:30:33 435.800 - 435.900 CW/SSB
Uosat F 24 Jul 22:14:47 22:19:43 59° 73° (ENE) 22:24:42 435.120 FM
UOSAT-12 24 Jul 22:27:49 22:32:21 60° 304° (NW) 22:37:00 437.025 FM, 437.400 FM
JAS-2 24 Jul 22:35:29 22:38:32 13° 55° (NE) 22:41:32 435.800 - 435.900 CW/SSB, 435.910 FM
OPAL 24 Jul 22:49:44 22:54:35 45° 101° (ESE) 22:59:27 ?
AO-7 24 Jul 22:55:59 23:04:18 71° 255° (WSW) 23:12:41 29.400 - 29.500 MHz
Hamsat 24 Jul 23:08:07 23:09:45 12° 64° (ENE) 23:11:24 145.90 MHz
Saudisat 1A 24 Jul 23:11:31 23:15:04 23° 47° (NE) 23:18:35 436.775 MHz
KITSAT 1 24 Jul 23:45:22 23:53:01 48° 249° (WSW) 00:00:37 435.175 FM
Uosat F 24 Jul 23:56:01 23:58:52 15° 268° (W) 00:01:44 435.120 FM
Oscar 10/S400 25 Jul 00:12:51 00:24:32 17° 143° (SE) 00:36:13 145.825 - 145.975 CW/USB, Beacon 145.810 USB
JAS-2 25 Jul 00:14:31 00:22:15 64° 72° (ENE) 00:29:40 435.800 - 435.900 CW/SSB, 435.910 FM
RS-15 25 Jul 00:17:36 00:25:13 20° 340° (NNW) 00:32:51 29.354 - 29.394 USB, Beacon 29.352 USB
OPAL 25 Jul 00:29:22 00:33:09 22° 297° (WNW) 00:36:57 ?
Hamsat 25 Jul 00:41:08 00:45:14 55° 260° (W) 00:49:21 145.90 MHz
Saudisat 1A 25 Jul 00:50:40 00:54:46 38° 245° (WSW) 00:58:49 436.775 MHz
AO-7 25 Jul 00:56:00 00:58:24 11° 272° (W) 01:00:49 29.400 - 29.500 MHz
STRAND 1 25 Jul 01:05:18 01:09:28 25° 95° (E) 01:13:36 ?
HO-68 25 Jul 01:17:32 01:19:53 12° 51° (NE) 01:22:14 435.675 MHz FM
SO-67 25 Jul 01:18:50 01:22:12 54° 75° (ENE) 01:25:37 435.3500 MHz FM
JAS-2 25 Jul 02:01:14 02:07:33 27° 267° (W) 02:13:45 435.800 - 435.900 CW/SSB, 435.910 FM
UKube-1 25 Jul 02:35:21 02:38:22 19° 66° (ENE) 02:41:24 145.840 MHz, 145.915 MHz
RS-15 25 Jul 02:36:00 02:43:28 20° 18° (NNE) 02:51:01 29.354 - 29.394 USB, Beacon 29.352 USB
STRAND 1 25 Jul 02:44:03 02:48:43 37° 291° (WNW) 02:53:20 ?
HO-68 25 Jul 02:59:09 03:06:12 64° 70° (ENE) 03:13:17 435.675 MHz FM
Oscar 11 25 Jul 03:24:59 03:28:41 29° 70° (ENE) 03:32:25 145.825 FM, Beacon 2401.500 USB
FUNcube-1 25 Jul 03:34:47 03:37:01 14° 65° (ENE) 03:39:13 145.950 - 145.970 MHz USB
MaSat-1 25 Jul 03:59:03 04:02:15 26° 104° (ESE) 04:05:54 437.345 MHz
UKube-1 25 Jul 04:10:12 04:14:17 38° 261° (W) 04:18:23 145.840 MHz, 145.915 MHz
SO-50 25 Jul 04:31:33 04:36:05 43° 53° (NE) 04:40:40 436.795 FM
RS-15 25 Jul 04:48:42 04:59:22 51° 48° (NE) 05:10:20 29.354 - 29.394 USB, Beacon 29.352 USB
HO-68 25 Jul 04:48:56 04:54:21 23° 267° (W) 04:59:48 435.675 MHz FM
Oscar 11 25 Jul 05:01:28 05:04:52 23° 265° (W) 05:08:16 145.825 FM, Beacon 2401.500 USB
FUNcube-1 25 Jul 05:08:43 05:13:00 52° 260° (W) 05:17:13 145.950 - 145.970 MHz USB
UOSAT-12 25 Jul 05:19:55 05:22:16 14° 40° (NE) 05:24:36 437.025 FM, 437.400 FM
Lituanica SAT-1 25 Jul 05:32:39 05:34:30 26° 136° (SE) 05:36:21 437.275 MHz beacon
MaSat-1 25 Jul 05:36:03 05:39:30 27° 306° (NW) 05:43:24 437.345 MHz
SO-50 25 Jul 06:12:45 06:16:23 22° 249° (WSW) 06:20:02 436.795 FM
ISS 25 Jul 06:32:55 06:35:22 19° 131° (SE) 06:37:50 145.800 FM
UOSAT-12 25 Jul 06:58:23 07:03:08 86° 58° (ENE) 07:07:48 437.025 FM, 437.400 FM
RS-15 25 Jul 07:01:17 07:11:39 48° 250° (WSW) 07:22:26 29.354 - 29.394 USB, Beacon 29.352 USB
Sapphire 25 Jul 07:04:00 07:07:55 21° 106° (ESE) 07:11:52 437.095 MHz 1200 baud AX-25 AFSK
Lituanica SAT-1 25 Jul 07:05:55 07:07:14 15° 333° (NNW) 07:08:33 437.275 MHz beacon
PCSat 25 Jul 07:36:28 07:41:34 45° 112° (ESE) 07:46:42 145.825 MHz
Oscar 19 25 Jul 07:39:27 07:42:54 18° 93° (E) 07:46:20 437.125 CW, 437.150 USB
Oscar 16 25 Jul 08:06:04 08:10:44 34° 97° (E) 08:15:24 437.025 USB, Beacon 2401.1428
ISS 25 Jul 08:08:39 08:11:52 44° 327° (NNW) 08:15:06 145.800 FM
JAS-1B 25 Jul 08:12:43 08:18:31 18° 84° (E) 08:23:51 435.800 - 435.900 CW/SSB
ITAMSAT 1 25 Jul 08:18:16 08:21:53 19° 93° (E) 08:25:29 435.822 SSB
AO-Echo 25 Jul 08:31:08 08:35:25 26° 94° (E) 08:39:33 ?
Gurwin Techsat 1B 25 Jul 08:35:31 08:36:22 10° 89° (E) 08:37:12 435.225 FM
AO-27 25 Jul 08:35:36 08:40:04 29° 96° (E) 08:44:30 436.795 MHz FM
Uribyol 2 25 Jul 08:38:09 08:42:44 31° 97° (E) 08:47:17 436.500 FM
Sapphire 25 Jul 08:45:41 08:50:56 51° 303° (WNW) 08:56:13 437.095 MHz 1200 baud AX-25 AFSK
Oscar 19 25 Jul 09:17:31 09:22:31 52° 288° (WNW) 09:27:30 437.125 CW, 437.150 USB
PCSat 25 Jul 09:20:38 09:25:09 27° 310° (NW) 09:29:42 145.825 MHz
Oscar 16 25 Jul 09:45:38 09:49:57 28° 293° (WNW) 09:54:15 437.025 USB, Beacon 2401.1428
ISS 25 Jul 09:47:36 09:49:16 13° 346° (NNW) 09:50:56 145.800 FM
